TimeCDT,TemperatureF,Dew PointF,Humidity,Sea Level PressureIn,VisibilityMPH,Wind Direction,Wind SpeedMPH,Gust SpeedMPH,PrecipitationIn,Events,Conditions,WindDirDegrees,DateUTC
12:52 AM,36.0,25.0,64,29.86,10.0,SE,17.3,-,N/A,,Clear,140,2013-03-21 05:52:00
1:52 AM,36.0,25.0,64,29.81,10.0,SE,20.7,-,N/A,,Clear,140,2013-03-21 06:52:00
2:52 AM,35.1,24.1,64,29.77,10.0,SE,18.4,29.9,N/A,,Clear,140,2013-03-21 07:52:00
3:52 AM,35.1,24.1,64,29.74,10.0,SSE,19.6,28.8,N/A,,Clear,150,2013-03-21 08:52:00
4:52 AM,34.0,24.1,67,29.71,10.0,SE,18.4,-,N/A,,Clear,140,2013-03-21 09:52:00
5:52 AM,32.0,24.1,73,29.70,10.0,SE,13.8,-,N/A,,Clear,130,2013-03-21 10:52:00
6:52 AM,32.0,24.1,73,29.69,10.0,SE,15.0,-,N/A,,Clear,130,2013-03-21 11:52:00
7:52 AM,30.9,24.1,76,29.70,10.0,SE,15.0,-,N/A,,Clear,130,2013-03-21 12:52:00
8:52 AM,34.0,24.1,67,29.71,10.0,ESE,18.4,23.0,N/A,,Clear,120,2013-03-21 13:52:00
9:52 AM,37.0,24.1,59,29.70,10.0,SE,19.6,-,N/A,,Clear,130,2013-03-21 14:52:00
10:52 AM,42.1,26.1,53,29.67,10.0,SE,20.7,-,N/A,,Clear,130,2013-03-21 15:52:00
11:52 AM,44.6,26.6,49,29.64,10.0,SE,18.4,24.2,N/A,,Clear,130,2013-03-21 16:52:00
12:52 PM,48.9,28.0,44,29.63,10.0,SE,13.8,20.7,N/A,,Clear,140,2013-03-21 17:52:00
1:52 PM,52.0,30.0,43,29.62,10.0,SE,12.7,20.7,N/A,,Clear,130,2013-03-21 18:52:00
2:52 PM,53.1,30.0,41,29.58,10.0,SE,12.7,-,N/A,,Clear,130,2013-03-21 19:52:00
3:52 PM,54.0,30.9,41,29.58,10.0,East,11.5,-,N/A,,Clear,100,2013-03-21 20:52:00
4:52 PM,54.0,32.0,43,29.59,10.0,SE,10.4,-,N/A,,Clear,130,2013-03-21 21:52:00
5:52 PM,52.0,32.0,47,29.62,10.0,ESE,15.0,-,N/A,,Overcast,110,2013-03-21 22:52:00
6:52 PM,48.0,30.9,52,29.64,10.0,ESE,15.0,20.7,N/A,,Scattered Clouds,110,2013-03-21 23:52:00
7:52 PM,43.0,30.0,60,29.66,9.0,East,13.8,-,N/A,,Clear,90,2013-03-22 00:52:00
8:52 PM,39.0,28.9,67,29.68,10.0,East,13.8,-,N/A,,Clear,100,2013-03-22 01:52:00
9:52 PM,36.0,28.0,73,29.72,10.0,East,11.5,-,N/A,,Clear,100,2013-03-22 02:52:00
10:52 PM,35.1,25.0,67,29.75,10.0,ESE,19.6,26.5,N/A,,Clear,110,2013-03-22 03:52:00
11:52 PM,32.0,23.0,69,29.86,10.0,NE,8.1,-,N/A,,Partly Cloudy,40,2013-03-22 04:52:00